Regional Weather Roundup
Issued by NWS Green Bay, WI

Home | Current Version | Previous Version | Text Only | Print | Product List | Glossary On
Versions: 1 2 3 4 5 6 7 8 9 10 11 12 13 14 15 16 17 18 19 20 21 22 23 24 25 26 27 28 29 30 31 32 33 34 35 36 37 38 39 40 41 42 43 44 45 46 47 48 49 50
000
ASUS43 KGRB 040400
RWRGRB

NORTH-CENTRAL AND NORTHEAST WISCONSIN REGIONAL WEATHER ROUNDUP
NATIONAL WEATHER SERVICE GREEN BAY WI
1000 PM CST SAT DEC 03 2016

WIZ005-009-010>012-018-019-040500-
NORTH CENTRAL WISCONSIN

CITY           SKY/WX    TMP DP  RH WIND       PRES   REMARKS
IRONWOOD       CLOUDY    27  23  85 SE5       30.17F
MANITOWISH WTR NOT AVBL
ARBOR VITAE    CLOUDY    29  23  76 CALM      30.16F
EAGLE RIVER    CLOUDY    27  18  71 SW5       30.16F
LAND O LAKES   CLOUDY    27  21  77 SW3       30.18F
RHINELANDER    CLOUDY    28  20  71 CALM      30.17F
PHILLIPS       CLOUDY    27  23  84 S5        30.16F
ANTIGO         NOT AVBL
TOMAHAWK       CLOUDY    27  21  77 CALM      30.18F
MERRILL        CLOUDY    28  22  77 SW3       30.19F
$$

WIZ013-073-040500-
NORTHEAST WISCONSIN

CITY           SKY/WX    TMP DP  RH WIND       PRES   REMARKS
IRON MOUNTAIN  CLOUDY    31  25  78 CALM      30.18F
MARINETTE      CLOUDY    30  22  72 SW5       30.25R
OCONTO         CLOUDY    31  22  71 CALM      30.25F
$$

WIZ017-030-035>037-045-040500-
CENTRAL WISCONSIN

CITY           SKY/WX    TMP DP  RH WIND       PRES   REMARKS
MEDFORD        CLOUDY    26  21  82 CALM      30.16F
WAUSAU         CLOUDY    28  21  75 S3        30.19F
MOSINEE        CLOUDY    27  25  93 E3        30.20F
MARSHFIELD     CLOUDY    27  21  78 SE5       30.17F
WISC RAPIDS    PTCLDY    28  22  78 SE5       30.21F
STEVENS POINT  NOT AVBL
WAUPACA        CLOUDY    31  24  73 CALM      30.24F
SHAWANO        CLOUDY    32  24  71 CALM      30.24F
CLINTONVILLE   CLOUDY    32  23  69 SW3       30.24F
WAUTOMA        PTCLDY    29  23  78 SE3       30.23F
$$

WIZ038-039-048-051-040500-
FOX VALLEY

CITY           SKY/WX    TMP DP  RH WIND       PRES   REMARKS
NWS GREEN BAY  CLOUDY    33  25  72 S3        30.25F
APPLETON       CLOUDY    30  21  69 VRB3      30.23F
OSHKOSH        CLOUDY    30  23  75 S3        30.24F
FOND DU LAC    CLOUDY    31  22  69 S3        30.25F
$$

WIZ022-050-052-040500-
EAST CENTRAL WISCONSIN

CITY           SKY/WX    TMP DP  RH WIND       PRES   REMARKS
EPHRAIM        CLOUDY    31  25  80 SW3       30.23R
WASHINGTON ISL CLOUDY    33  26  76 SW6       30.23S
STURGEON BAY   CLOUDY    31  24  75 S5        30.25F
MANITOWOC      NOT AVBL
SHEBOYGAN      CLOUDY    30  22  72 SW3       30.26F
$$

LMZ563-521-522-541>543-040500-
LAKESHORE

STATION/POSITION TIME  TEMP    WIND        PRES    VSBY  WAVE
                       AIR SEA DIR/SP/G                  HT/PER
                 (UTC) (F)     (DEG/KT/KT) (MB)    (MI)  (FT/S)
SHEBOYGAN LKSHOR 0300   31     250/  2/  3 1025.8S
KEWAUNEE LKSHORE 0330   32     240/  2/  5 1024.3F
ALGOMA MARINA    0321          230/  9/ 11   N/A
NORTHPORT PIER   0340   32        CALM     1023.7F
SISTER BAY LKSHO 0309   33     170/  6/  7   N/A
CHAMBERS ISLAND  0340   33     200/  6/ 10 1023.7S
MENOMINEE LKSHOR 0330   31     210/  8/ 10 1023.2S
$$




USA.gov is the U.S. government's official web portal to all federal, state and local government web resources and services.